Weather History for Durango, CO

Change the Weather History Date:

Saturday, October 12, 2013

  Actual Average Record
Temperature  
Mean Temperature 43 °F 48 °F  
Max Temperature 57 °F 65 °F 81 °F (1989)
Min Temperature 28 °F 32 °F 23 °F (1970)
Degree Days  
Heating Degree Days 22 17  
Month to date heating degree days 226 173  
Since 1 July heating degree days 408 397  
Cooling Degree Days 0 0  
Month to date cooling degree days 0 0  
Year to date cooling degree days 388 243  
Moisture  
Dew Point 32 °F    
Average Humidity 69    
Maximum Humidity 100    
Minimum Humidity 38    
Precipitation  
Precipitation 0.00 in 0.05 in 0.78 in (1986)
Month to date precipitation 0.75 0.61  
Year to date precipitation 13.74 12.49  
Sea Level Pressure  
Sea Level Pressure 30.17 in    
Wind  
Wind Speed 2 mph (ENE)    
Max Wind Speed 10 mph    
Max Gust Speed 15 mph    
Visibility 10 miles    
Events      
T = Trace of Precipitation, MM = Missing Value Source: NWS Daily Summary

Daily Weather History Graph

Daily Weather History Graph

Search for Another Location

Airport:

Trip Planner

Search our weather history database for the weather conditions in past years. The results will help you decide how hot, cold, wet, or windy it might be!

Date:

Astronomy

Oct. 12, 2013 Rise Set
Actual Time 7:16 AM MDT 6:37 PM MDT
Civil Twilight 6:50 AM MDT 7:03 PM MDT
Nautical Twilight 6:20 AM MDT 7:34 PM MDT
Astronomical Twilight 5:49 AM MDT 8:04 PM MDT
Moon 2:42 PM MDT (10/12) 12:31 AM MDT (10/12)
Length of Visible Light 12h 13m
Length of Day
11h 21m
First Quarter, 59% of the Moon is Illuminated
Oct 12
First Quarter
Oct 18
Full
Oct 26
Last Quarter
Nov 3
New
Nov 9
First Quarter

Hourly Weather History & Observations

Time (MDT) Temp. Windchill Dew Point Humidity Pressure Visibility Wind Dir Wind Speed Gust Speed Precip Events Conditions
12:33 AM 33.8 °F 29.6 °F 33.8 °F 100% 30.17 in 10.0 mi NW 4.6 mph - N/A   Scattered Clouds
12:53 AM 34.0 °F - 33.1 °F 96% 30.18 in 10.0 mi Calm Calm - N/A   Clear
1:53 AM 33.1 °F - 32.0 °F 96% 30.19 in 10.0 mi Calm Calm - N/A   Clear
2:53 AM 32.0 °F 27.5 °F 30.0 °F 92% 30.16 in 10.0 mi North 4.6 mph - N/A   Clear
3:53 AM 30.9 °F - 30.0 °F 96% 30.17 in 10.0 mi Calm Calm - N/A   Clear
4:53 AM 30.0 °F - 28.9 °F 96% 30.17 in 10.0 mi Calm Calm - N/A   Clear
5:53 AM 28.9 °F - 28.0 °F 96% 30.19 in 10.0 mi Calm Calm - N/A   Clear
6:53 AM 30.0 °F - 28.0 °F 92% 30.21 in 10.0 mi Calm Calm - N/A   Clear
7:53 AM 30.0 °F - 28.9 °F 96% 30.25 in 10.0 mi Calm Calm - N/A   Clear
8:53 AM 36.0 °F - 32.0 °F 86% 30.25 in 10.0 mi Calm Calm - N/A   Clear
9:53 AM 42.1 °F - 33.1 °F 70% 30.22 in 10.0 mi Calm Calm - N/A   Clear
10:53 AM 45.0 °F 43.5 °F 35.1 °F 68% 30.23 in 10.0 mi Variable 3.5 mph - N/A   Clear
11:53 AM 48.9 °F - 35.1 °F 59% 30.20 in 10.0 mi East 4.6 mph - N/A   Clear
12:53 PM 51.1 °F - 33.1 °F 50% 30.17 in 10.0 mi SSE 3.5 mph - N/A   Clear
1:53 PM 53.1 °F - 30.9 °F 43% 30.14 in 10.0 mi ESE 4.6 mph - N/A   Clear
2:53 PM 55.0 °F - 32.0 °F 42% 30.11 in 10.0 mi SE 8.1 mph - N/A   Clear
3:53 PM 55.0 °F - 30.0 °F 38% 30.11 in 10.0 mi Calm Calm - N/A   Clear
4:53 PM 55.9 °F - 30.9 °F 39% 30.10 in 10.0 mi East 5.8 mph - N/A   Clear
5:53 PM 55.9 °F - 32.0 °F 40% 30.10 in 10.0 mi NE 5.8 mph - N/A   Clear
6:53 PM 50.0 °F - 34.0 °F 54% 30.13 in 10.0 mi NNE 9.2 mph - N/A   Clear
7:53 PM 44.1 °F 40.8 °F 35.1 °F 71% 30.17 in 10.0 mi NNE 5.8 mph - N/A   Clear
8:53 PM 44.1 °F - 32.0 °F 63% 30.15 in 10.0 mi Calm Calm - N/A   Clear
9:53 PM 41.0 °F - 33.1 °F 73% 30.15 in 10.0 mi Calm Calm - N/A   Clear
10:53 PM 39.9 °F - 33.1 °F 77% 30.14 in 10.0 mi Calm Calm - N/A   Scattered Clouds
11:53 PM 42.1 °F - 33.1 °F 70% 30.11 in 10.0 mi Calm Calm - N/A   Mostly Cloudy